Salina, KS

4:15 PM CDT on April 21, 2018 (GMT -0500)
Salina Municipal

Weather History for KSLN - July, 2013

Change the Weather History Date:

Saturday, July 20, 2013

  Actual Average Record
Temperature  
Mean Temperature 84 °F 82 °F  
Max Temperature 96 °F 93 °F 110 °F (1934)
Min Temperature 71 °F 70 °F 54 °F (1902)
Degree Days  
Heating Degree Days 0 0  
Month to date heating degree days 0 0  
Since 1 June heating degree days 7 7  
Since 1 July heating degree days 0 0  
Cooling Degree Days 19 17  
Month to date cooling degree days 332 318  
Year to date cooling degree days 860 771  
Since 1 June cooling degree days 719 643  
Growing Degree Days 33 (Base 50)    
Moisture  
Dew Point 68 °F    
Average Humidity 63    
Maximum Humidity 90    
Minimum Humidity 36    
Precipitation  
Precipitation 0.37 in 0.13 in 1.86 in (1928)
Month to date precipitation 2.29 2.91  
Year to date precipitation 17.77 19.01  
Sea Level Pressure  
Sea Level Pressure 29.87 in    
Wind  
Wind Speed 7 mph (East)    
Max Wind Speed 23 mph    
Max Gust Speed 29 mph    
Visibility 9 miles    
Events Rain , Thunderstorm    
T = Trace of Precipitation, MM = Missing Value Source: NWS Daily Summary

Daily Weather History Graph

Daily Weather History Graph

Search for Another Location

Airport or City:

Astronomy

Jul. 20, 2013 Rise Set
Actual Time 6:21 AM CDT 8:51 PM CDT
Civil Twilight 5:51 AM CDT 9:22 PM CDT
Nautical Twilight 5:13 AM CDT 10:00 PM CDT
Astronomical Twilight 4:30 AM CDT 10:42 PM CDT
Moon 6:56 PM CDT (7/20) 4:03 AM CDT (7/20)
Length of Visible Light 15h 30m
Length of Day
14h 29m
Waxing Gibbous, 94% of the Moon is Illuminated
Jul 20
Waxing Gibbous
Jul 22
Full
Jul 29
Last Quarter
Aug 6
New
Aug 14
First Quarter

Hourly Weather History & Observations

Time (CDT) Temp. Heat Index Dew Point Humidity Pressure Visibility Wind Dir Wind Speed Gust Speed Precip Events Conditions
12:53 AM 77.0 °F - 68.0 °F 74% 29.92 in 10.0 mi East 4.6 mph - N/A   Mostly Cloudy
1:53 AM 75.9 °F - 66.9 °F 74% 29.89 in 10.0 mi SE 3.5 mph - N/A   Clear
2:53 AM 73.9 °F - 66.9 °F 79% 29.88 in 10.0 mi Calm Calm - N/A   Clear
3:53 AM 73.0 °F - 68.0 °F 84% 29.87 in 10.0 mi SSE 3.5 mph - N/A   Clear
4:53 AM 73.9 °F - 68.0 °F 82% 29.87 in 10.0 mi NNW 9.2 mph - N/A   Clear
5:53 AM 73.0 °F - 68.0 °F 84% 29.88 in 10.0 mi North 4.6 mph - N/A   Scattered Clouds
6:53 AM 73.9 °F - 68.0 °F 82% 29.87 in 10.0 mi Calm Calm - N/A   Scattered Clouds
7:53 AM 75.9 °F - 68.0 °F 76% 29.87 in 10.0 mi NW 3.5 mph - N/A   Clear
8:53 AM 78.1 °F - 68.0 °F 71% 29.88 in 10.0 mi Calm Calm - 0.00 in   Clear
9:53 AM 82.9 °F 86.5 °F 69.1 °F 63% 29.88 in 10.0 mi Calm Calm - N/A   Clear
10:53 AM 87.1 °F 90.6 °F 68.0 °F 53% 29.88 in 10.0 mi East 5.8 mph - N/A   Clear
11:53 AM 91.0 °F 95.2 °F 68.0 °F 47% 29.87 in 10.0 mi East 6.9 mph - N/A   Clear
12:53 PM 93.0 °F 97.4 °F 68.0 °F 44% 29.84 in 10.0 mi South 6.9 mph - N/A   Clear
1:53 PM 95.0 °F 97.4 °F 64.9 °F 37% 29.82 in 10.0 mi Variable 3.5 mph - N/A   Mostly Cloudy
2:53 PM 90.0 °F 93.6 °F 68.0 °F 48% 29.80 in 10.0 mi Variable 3.5 mph - 0.04 in   Scattered Clouds
3:53 PM 87.1 °F 89.9 °F 66.9 °F 51% 29.81 in 10.0 mi West 16.1 mph 21.9 mph N/A   Mostly Cloudy
4:07 PM 82.4 °F 84.6 °F 66.2 °F 58% 29.87 in 10.0 mi NNE 16.1 mph 21.9 mph N/A Thunderstorm Thunderstorm
4:14 PM 80.6 °F 82.7 °F 66.2 °F 61% 29.89 in 10.0 mi NE 13.8 mph - N/A Thunderstorm Thunderstorm
4:35 PM 77.0 °F - 69.8 °F 78% 29.92 in 1.5 mi North 19.6 mph 26.5 mph 0.14 in Rain , Thunderstorm Heavy Thunderstorms and Rain
4:53 PM 75.0 °F - 70.0 °F 84% 29.88 in 2.0 mi North 15.0 mph - 0.22 in Rain Light Rain
5:02 PM 75.2 °F - 69.8 °F 83% 29.91 in 10.0 mi NE 11.5 mph - 0.01 in Rain Light Rain
5:53 PM 73.0 °F - 69.1 °F 87% 29.87 in 10.0 mi East 16.1 mph 25.3 mph 0.02 in Rain Light Rain
6:21 PM 71.6 °F - 69.8 °F 94% 29.89 in 10.0 mi East 12.7 mph - 0.00 in Rain Light Rain
6:53 PM 73.0 °F - 69.1 °F 87% 29.88 in 7.0 mi SSE 8.1 mph - 0.02 in Rain Light Rain
7:53 PM 73.0 °F - 70.0 °F 90% 29.87 in 6.0 mi South 19.6 mph 24.2 mph 0.05 in Rain Rain
8:53 PM 73.0 °F - 70.0 °F 90% 29.85 in 10.0 mi South 11.5 mph 19.6 mph 0.02 in Rain Light Rain
9:53 PM 73.0 °F - 69.1 °F 87% 29.84 in 10.0 mi SSE 10.4 mph - 0.00 in   Partly Cloudy
10:53 PM 73.0 °F - 68.0 °F 84% 29.86 in 10.0 mi SSE 12.7 mph - N/A   Mostly Cloudy
11:53 PM 72.0 °F - 68.0 °F 87% 29.87 in 10.0 mi SSE 6.9 mph - N/A   Scattered Clouds